Regional Weather Roundup
Issued by NWS

Home | Current Version | Previous Version | Text Only | Print | Product List | Glossary On
Versions: 1 2 3 4 5 6 7 8 9 10 11 12 13 14 15 16 17 18 19 20 21 22 23 24 25 26 27 28 29 30 31 32 33 34 35 36 37 38 39 40 41 42 43 44 45 46 47 48 49 50
000
ASUS42 KFFC 211003
RWRGA
WEATHER ROUNDUP FOR GEORGIA
NATIONAL WEATHER SERVICE PEACHTREE CITY GA
500 AM EST WED FEB 21 2018

NOTE: "FAIR" INDICATES FEW OR NO CLOUDS BELOW 12,000 FEET WITH NO
SIGNIFICANT WEATHER AND/OR OBSTRUCTIONS TO VISIBILITY.

* = USE WITH CAUTION. THE STATIONS MARKED WITH AN ASTERISK MAY NOT
REPORT WEATHER SUCH AS PRECIPITATION, FOG, OR THUNDER AND ARE NOT
QUALITY CONTROLLED BY NWS.

THE REMARK "TC" DENOTES TEMPERATURE READING IN DEGREES CELSIUS.

GAZ001>058-211100-
NORTH GEORGIA

CITY           SKY/WX    TMP DP  RH WIND       PRES   REMARKS
ATLANTA        CLOUDY    66  66 100 S6        30.37S
ATHENS         CLOUDY    67  65  93 S3        30.39R
CHAMBLEE       CLOUDY    65  63  93 S6        30.37S
PEACHTREE CITY CLOUDY    67  65  93 SE3       30.37S
ROME           MOCLDY    64  64 100 CALM      30.32S
WEST ATLANTA   CLOUDY    66  66 100 S8        30.36S
GAINESVILLE    CLOUDY    64  63  96 S7        30.40S
CARTERSVILLE   FAIR      66  64  93 SE8       30.35S


CITY           SKY/WX    TMP DP  RH WIND       PRES   REMARKS
DALTON*        CLOUDY    63  63 100 S3        30.35S
LAWRENCEVILLE* CLOUDY    66  64  93 VRB5        N/A
MARIETTA       CLOUDY    65  64  94 S3        30.36S
KENNESAW*      CLOUDY    66  64  94 SE5       30.37S
CANTON*        LGT RAIN  66  66 100 CALM      30.39R
BLAIRSVILLE*   CLOUDY    65  61  86 S9        30.39S
$$

GAZ059>098-102>109-211100-
CENTRAL GEORGIA

CITY           SKY/WX    TMP DP  RH WIND       PRES   REMARKS
AUGUSTA-BUSH   CLOUDY    68  66  93 SE6       30.40R
AUGUSTA-DANIEL CLOUDY    69  66  90 SE7       30.41S
COLUMBUS       CLOUDY    67  65  93 E5        30.34R
MACON          CLOUDY    69  66  90 SE6       30.37S
ROBINS AFB     CLOUDY    69  66  88 SE7       30.36F


CITY           SKY/WX    TMP DP  RH WIND       PRES   REMARKS
LAGRANGE*      CLOUDY    66  66  98 CALM      30.35S
SYLVANIA*      CLOUDY    67  67 100 CALM      30.42S
MILLEDGEVILLE* CLOUDY    70  66  88 S3        30.39R
$$

GAZ099>101-110>166-211100-
SOUTH GEORGIA

CITY           SKY/WX    TMP DP  RH WIND       PRES   REMARKS
SAVANNAH       FAIR      66  66 100 CALM      30.41R
VALDOSTA       MOCLDY    66  66 100 CALM      30.36S
ALMA           CLOUDY    70  67  90 CALM      30.38S
ST SIMONS      CLOUDY    67  66  97 S3        30.39R
FT STEWART     FOG       63  63 100 N3        30.38R VSB 7/8
ALBANY         CLOUDY    69  67  93 SE9       30.36S
HUNTER AFB     FAIR      66  65  95 CALM      30.38R
MOODY AFB      FAIR      66  66 100 SE3       30.36R
BRUNSWICK      CLOUDY    68  64  88 CALM      30.40R


CITY           SKY/WX    TMP DP  RH WIND       PRES   REMARKS
BAINBRIDGE*    CLOUDY    68  68 100 CALM      30.34R
MOULTRIE*      CLOUDY    68  66  94 SE5       30.36S
VIDALIA*       CLOUDY    72  68  88 SE5       30.40R
WAYCROSS*      MOCLDY    69  66  91 CALM      30.38S
DOUGLAS*       CLOUDY    70  68  94 S5        30.39S
$$



USA.gov is the U.S. government's official web portal to all federal, state and local government web resources and services.